Regional Weather Roundup
Issued by NWS

Home | Current Version | Previous Version | Graphics & Text | Print | Product List | Glossary On
Versions: 1 2 3 4 5 6 7 8 9 10 11 12 13 14 15 16 17 18 19 20 21 22 23 24 25 26 27 28 29 30 31 32 33 34 35 36 37 38 39 40 41 42 43 44 45 46 47 48 49 50
000
ASUS43 KDMX 170401
RWRIA

WEATHER ROUNDUP FOR IOWA
NATIONAL WEATHER SERVICE DES MOINES IA
1000 PM CST FRI FEB 16 2018

NOTE: "FAIR" INDICATES FEW OR NO CLOUDS BELOW 12,000 FEET WITH NO
SIGNIFICANT WEATHER AND/OR OBSTRUCTIONS TO VISIBILITY.

* - THESE STATIONS ARE NOT NWS STATIONS...THUS NOT UNDER NWS
QUALITY CONTROL.  THEY ALSO DO NOT REPORT WEATHER SUCH
AS PRECIPITATION OR FOG.

IAZ001>003-012>014-020>022-031>034-043>046-170500-
   NORTHWEST IOWA

CITY           SKY/WX    TMP DP  RH WIND       PRES   REMARKS
CARROLL *      CLOUDY    23  16  74 S10       30.11F WCI  12
CHEROKEE *     CLOUDY    21  14  72 S12       30.07F WCI   9
DENISON *      PTCLDY    25  14  63 S13G20    30.12S WCI  13
LE MARS *      CLOUDY    23  16  74 S16       30.03F WCI  10
ORANGE CITY *  CLOUDY    21  16  79 S10       30.02F WCI  10
SHELDON *      CLOUDY    19  12  73 S18       30.00F WCI   4
SIOUX CITY     CLOUDY    23  15  71 SE9       30.06F WCI  13
SPENCER        CLOUDY    15   9  76 SE7       30.05F WCI   5
STORM LAKE *   CLOUDY    19  14  79 S15       30.06F WCI   5
$$

IAZ055>058-069>071-079>083-090>094-170500-
   SOUTHWEST IOWA

CITY           SKY/WX    TMP DP  RH WIND       PRES   REMARKS
ATLANTIC *     CLOUDY    25  14  63 S8        30.14F WCI  16
AUDUBON *      CLOUDY    23  14  68 CALM      30.12F
CLARINDA *     CLOUDY    23  18  80 S5        30.19F WCI  17
COUNCIL BLFS * CLOUDY    25  14  63 S10       30.12F WCI  15
CRESTON *      CLOUDY    21  14  73 S8        30.17F WCI  12
HARLAN  *      CLOUDY    23  16  74 S9        30.15F WCI  13
LAMONI         CLOUDY    24   7  48 S7        30.19F WCI  16
RED OAK *      CLOUDY    23  16  74 CALM      30.15F
SHENANDOAH *   CLOUDY    25  16  68 SE8       30.17F WCI  16
$$

IAZ047>049-059>061-072>074-084-170500-
   CENTRAL IOWA

CITY           SKY/WX    TMP DP  RH WIND       PRES   REMARKS
AMES           CLOUDY    18   8  65 SE9       30.16F WCI   7
ANKENY *       CLOUDY    19  10  68 SE5       30.20F WCI  13
BOONE *        CLOUDY    21  16  79 S8        30.14F WCI  12
CHARITON *     CLOUDY    23  10  58 S7        30.20S WCI  15
DES MOINES     CLOUDY    22  11  62 S8        30.18F WCI  12
GRINNELL*      CLOUDY    17  10  74 SE5       30.21F WCI  10
KNOXVILLE *    CLOUDY    21   7  53 S6        30.19F WCI  14
MARSHALLTOWN   CLOUDY    18  10  71 S10       30.18F WCI   6
NEWTON *       CLOUDY    16   9  73 SE7       30.20F WCI   6
PELLA *        CLOUDY    17   9  68 SE3       30.23S
$$

IAZ004>006-015-016-023>025-035-036-170500-
   NORTH CENTRAL IOWA

CITY           SKY/WX    TMP DP  RH WIND       PRES   REMARKS
CLARION *      CLOUDY    14  12  92 S12       30.13F WCI   0
ESTHERVILLE    CLOUDY    14   9  80 S16       30.04F WCI  -2
FORT DODGE *   CLOUDY    22  13  68 S9        30.11F WCI  12
MASON CITY     PTCLDY    13   7  77 S9        30.13F WCI   1
FOREST CITY *  FAIR      18  12  79 S10       30.10F WCI   6
WEBSTER CITY * CLOUDY    12   7  79 S9        30.11F WCI   0
IOWA FALLS *   FAIR      11   6  78 SE9       30.16F WCI  -1
$$

IAZ007>011-017>019-026>030-037>042-050>054-066-170500-
   NORTHEAST IOWA

CITY           SKY/WX    TMP DP  RH WIND       PRES   REMARKS
CEDAR RAPIDS   FAIR      17   9  70 S3        30.21F
CHARLES CITY * FAIR      12   5  73 S9        30.15F WCI   0
CLINTON *      FAIR      13   5  70 SW6       30.26F WCI   4
DECORAH *      FAIR      12   5  73 SE5       30.16F WCI   4
DUBUQUE        FAIR      10   3  73 SW6       30.21F WCI   0
MONTICELLO *   FAIR      10   5  79 CALM      30.23F
OELWEIN *      FAIR       7   5  92 SE7       30.19F WCI  -5
WATERLOO       FAIR      12   7  80 SE8       30.19F WCI   0
$$

IAZ064-065-067-068-078-170500-
   EAST CENTRAL IOWA

CITY           SKY/WX    TMP DP  RH WIND       PRES   REMARKS
DAVENPORT      FAIR      16   8  71 S6        30.27F WCI   7
IOWA CITY      FAIR      15   8  73 CALM      30.26F
MT. PLEASANT * CLOUDY    19  14  79 SE6       30.25F WCI  11
MUSCATINE *    FAIR      12   9  85 S5        30.27F WCI   4
QUAD CITIES    FAIR      16   9  74 CALM      30.26F
$$

IAZ062-063-075>077-085>089-095>099-170500-
   SOUTHEAST IOWA

CITY           SKY/WX    TMP DP  RH WIND       PRES   REMARKS
BURLINGTON     CLOUDY    19  13  77 SE5       30.26F WCI  12
FAIRFIELD *    CLOUDY    18  10  73 SE6       30.23F WCI   9
FORT MADISON * CLOUDY    21  16  79 SE7       30.26F WCI  13
KEOKUK *       CLOUDY    19  14  79 E6        30.25F WCI  11
OSKALOOSA *    FAIR      13   8  77 S10       30.22F WCI   0
OTTUMWA        CLOUDY    19  10  68 S6        30.22F WCI  11
WASHINGTON *   CLOUDY    14  10  85 SE8       30.25F WCI   3
$$

ABBREVIATIONS USED IN REMARKS
   TC - TEMPERATURES IN CELSIUS
  WCI - WIND CHILL INDEX
   HX - HEAT INDEX
  VSB - VISIBILITY
$$





USA.gov is the U.S. government's official web portal to all federal, state and local government web resources and services.